📊 Raw Sensor Data

Showing records 36976 to 37000 of 84,906 total

ID Distance (ft) Battery V Battery A Int Temp (°F) Int Humid (%) Ext Temp (°F) Solar V RSSI SNR Time Stamp
47943 15.4 3.93 0 56 43 62 4.50 -69 7 08/01/2025 06:45 AM
47942 15.4 3.93 0 54 44 58 4.60 -69 8 08/01/2025 06:30 AM
47941 15.4 3.86 -14 53 44 54 4.50 -69 8 08/01/2025 06:15 AM
47940 15.3 3.87 -5 54 44 55 2.00 -69 8 08/01/2025 06:00 AM
47939 15.3 3.87 -5 55 44 56 0.10 -69 8 08/01/2025 05:45 AM
47938 15.4 3.92 -5 55 44 56 0.00 -70 8 08/01/2025 05:30 AM
47937 15.3 3.87 -5 56 44 57 0.00 -70 8 08/01/2025 05:15 AM
47936 15.3 3.87 -5 56 44 57 0.00 -70 8 08/01/2025 05:00 AM
47935 15.3 3.87 -5 56 44 57 0.00 -70 8 08/01/2025 04:45 AM
47934 15.3 3.93 -5 56 44 57 0.00 -69 8 08/01/2025 04:30 AM
47933 15.3 3.87 -5 56 44 58 0.00 -70 8 08/01/2025 04:15 AM
47932 15.3 3.87 -5 56 44 58 0.00 -70 8 08/01/2025 04:00 AM
47931 15.3 3.87 -5 56 44 58 0.00 -69 8 08/01/2025 03:45 AM
47930 15.3 3.93 -5 56 44 58 0.00 -69 7 08/01/2025 03:30 AM
47929 15.3 3.93 -5 56 44 58 0.00 -69 7 08/01/2025 03:15 AM
47928 15.3 3.87 -5 56 44 58 0.00 -70 8 08/01/2025 03:00 AM
47927 15.3 3.87 -5 56 45 58 0.10 -68 8 08/01/2025 02:45 AM
47926 15.3 3.93 -5 56 45 57 0.10 -68 8 08/01/2025 02:30 AM
47925 15.3 3.87 -5 56 45 58 0.00 -68 8 08/01/2025 02:15 AM
47924 15.3 3.88 -5 56 45 58 0.00 -69 8 08/01/2025 02:00 AM
47923 15.3 3.88 -5 57 45 58 0.00 -69 8 08/01/2025 01:45 AM
47922 15.3 3.93 -5 57 45 58 0.00 -68 8 08/01/2025 01:30 AM
47921 15.3 3.93 -5 58 45 59 0.00 -68 7 08/01/2025 01:15 AM
47920 15.3 3.94 -5 59 46 59 0.00 -68 8 08/01/2025 01:00 AM
47919 15.3 3.94 -5 59 46 60 0.00 -68 8 08/01/2025 12:45 AM